Back to catalog

SL-16 DEB

AliveLEO
NORAD 22409·DEBRIS·🇷🇺 Russia

Launched Dec 25, 1992 from Baikonur Cosmodrome

Loading…

Next Passes (next 24 hours)

TLE

FreshSource: Space-Track

Epoch: Sep 14, 2026, 04:12 UTC

1 22409U 92093DA  26257.17516806  .00000618  00000-0  12415-3 0  9997
2 22409  71.1319 319.3675 0114794 178.5814 213.2956 14.61881540761746

Track SL-16 DEB in real time with AllMySat

Download on the App Store